[[{"header":{"parameterUnit":"m.s-1","parameterCategory":1,"la1":30.2991,"la2":30.254,"lo1":-89.0895,"lo2":-89.0444,"dy":0.0017,"dx":0.0017,"nx":28,"ny":28,"refTime":"2025-12-22T03:00:00:Z","depth":0,"parameterNumber":2,"parameterNumberName":"U-component_of_WINDS"},"data":[0,0,0,0,0,0,0,0,0,0,0,0,0,0,0,0,0,0,0,0,0,0,0,0,0,0,0,0,0,0,0,0,0,0,0,0,0,0,0,0,0,0,0,0,0,0,0,0,0,0,0,0,0,0,0,0,0,0,-4.201,-4.2011,0,-4.2042,-4.2042,-4.2043,-4.1959,-4.1957,-4.1954,-4.1952,-4.1982,-4.1985,-4.1988,0,0,0,0,0,0,0,0,0,0,0,0,0,-4.1877,-4.188,-4.201,-4.2011,-4.2011,-4.2042,-4.2042,-4.2043,-4.196,-4.1957,-4.1953,-4.195,-4.1981,-4.1984,-4.1988,0,0,0,0,0,0,0,0,0,0,0,0,0,-4.1924,-4.1881,-4.201,-4.1974,-4.1971,-4.2042,-4.2042,-4.2043,-4.196,-4.1957,-4.1953,-4.1949,-4.1979,-4.1984,-4.1989,-4.2096,0,0,-4.2003,-4.2006,0,0,0,0,0,0,0,0,-4.1922,-4.1929,-4.1979,-4.1976,-4.1973,-4.1993,-4.2006,-4.2061,-4.1961,-4.1964,-4.1952,-4.1947,-4.1988,-4.1992,-4.2006,-4.2098,-4.2099,-4.2004,-4.2007,-4.2009,-4.201,0,0,0,0,0,0,0,-4.1919,-4.1928,-4.2023,-4.1979,-4.1976,-4.1955,-4.1957,-4.2016,-4.1998,-4.1964,-4.1958,-4.1963,-4.1986,-4.2002,-4.2007,-4.2099,-4.2004,-4.2008,-4.2011,-4.2013,-4.2281,-4.2285,0,0,0,0,0,0,-4.192,-4.1925,-4.2022,-4.2024,-4.1937,-4.1961,-4.1963,-4.199,-4.1997,-4.1994,-4.1966,-4.1959,-4.1996,-4.2001,-4.2007,-4.2134,-4.2009,-4.2013,-4.2016,-4.2277,-4.2282,-4.2286,0,0,0,0,0,0,-4.1918,-4.193,-4.202,-4.1973,-4.1983,-4.1967,-4.1998,-4.1993,-4.2009,-4.1999,-4.1995,-4.1986,-4.1993,-4.2001,-4.2075,-4.2133,-4.2015,-4.202,-4.2272,-4.2278,-4.2284,-4.2387,0,0,0,0,0,0,-4.1914,-4.1929,-4.197,-4.1975,-4.1986,-4.2088,-4.2002,-4.1996,-4.2018,-4.2008,-4.2016,-4.2014,-4.199,-4.2068,-4.208,-4.2138,-4.2024,-4.2266,-4.2274,-4.2282,-4.2379,-4.2396,-4.2412,0,0,0,0,0,-4.191,-4.1997,-4.1973,-4.1985,-4.2037,-4.2092,-4.2098,-4.207,-4.2023,-4.2063,-4.2057,-4.2013,-4.2126,-4.2077,-4.2089,-4.2149,-4.2262,-4.2272,-4.2281,-4.2371,-4.2393,-4.2411,0,0,0,0,0,0,-4.1999,-4.1997,-4.197,-4.2061,-4.2078,-4.2078,-4.2128,-4.2094,-4.2123,-4.2113,-4.2077,-4.208,-4.2161,-4.2162,-4.2108,-4.2254,-4.2186,-4.2198,-4.225,-4.227,-4.2287,-4.2284,-4.2028,0,0,0,0,0,-4.203,-4.2075,-4.2071,-4.2152,-4.2162,-4.2144,-4.2167,-4.2144,-4.2159,-4.2165,-4.2164,-4.218,-4.2218,-4.2245,-4.228,-4.2379,-4.2379,-4.2427,-4.2443,-4.2457,-4.2468,-4.2521,-4.2542,-4.2317,-4.2317,-4.2317,0,0,-4.2092,-4.2097,-4.2128,-4.217,-4.218,-4.2228,-4.215,-4.2203,-4.2238,-4.2173,-4.2243,-4.2244,-4.2259,-4.2346,-4.2385,-4.235,-4.253,-4.2469,-4.248,-4.2483,-4.2533,-4.2554,-4.2573,-4.2324,-4.2323,-4.2322,0,0,-4.2231,-4.224,-4.2309,-4.2321,-4.2337,-4.2325,-4.2342,-4.2348,-4.2346,-4.2416,-4.2369,-4.2409,-4.2477,-4.249,-4.2505,-4.2652,-4.2612,-4.2664,-4.275,-4.2802,-4.282,-4.2835,-4.2887,-4.2906,-4.2675,-4.2675,-4.2675,0,-4.2307,-4.2378,-4.2348,-4.2405,-4.2425,-4.237,-4.244,-4.2452,-4.2479,-4.2494,-4.2456,-4.254,-4.2546,-4.2636,-4.2672,-4.2687,-4.2704,-4.2662,-4.282,-4.2835,-4.2849,-4.2898,-4.2918,-4.2681,-4.2681,-4.268,-4.2679,0,-4.247,-4.252,-4.2574,-4.2602,-4.2629,-4.2692,-4.2671,-4.2701,-4.2677,-4.2669,-4.2742,-4.2748,-4.2784,-4.2804,-4.278,-4.2891,-4.2869,-4.2826,-4.2756,-4.2877,-4.2922,-4.2941,-4.269,-4.2688,-4.2686,-4.2685,0,0,-4.2664,-4.2677,-4.2697,-4.271,-4.2725,-4.2763,-4.2824,-4.286,-4.2886,-4.2907,-4.2957,-4.3017,-4.2977,-4.2995,-4.2972,-4.3018,-4.3134,-4.2969,-4.2969,-4.3,-4.3257,-4.3289,-4.3311,-4.3109,-4.3112,-4.3115,-4.3255,0,-4.2801,-4.2906,-4.2882,-4.2986,-4.3031,-4.2981,-4.3034,-4.3049,-4.3044,-4.3081,-4.3075,-4.3118,-4.3063,-4.3073,-4.3116,-4.3111,-4.3185,-4.3101,-4.3154,-4.3157,-4.3151,-4.3335,-4.3368,-4.35,-4.3273,-4.3276,-4.3278,0,-4.2974,-4.3003,-4.3112,-4.3121,-4.3139,-4.3187,-4.3219,-4.3256,-4.3272,-4.3265,-4.3286,-4.3255,-4.3315,-4.3247,-4.3329,-4.3272,-4.3292,-4.3293,-4.3298,-4.3301,-4.3224,-4.3342,-4.3541,-4.3561,-4.3306,-4.3304,-4.3302,0,-4.3104,-4.3171,-4.3244,-4.3257,-4.3269,-4.3305,-4.3311,-4.3324,-4.3347,-4.3375,-4.339,-4.3424,-4.3443,-4.347,-4.3449,-4.3401,-4.3534,-4.3464,-4.353,-4.353,-4.3559,-4.3557,-4.3764,-4.3574,-4.3574,-4.3574,-4.3573,0,-4.3259,-4.3327,-4.3303,-4.3348,-4.3424,-4.3396,-4.3471,-4.3471,-4.3484,-4.3528,-4.3486,-4.3528,-4.3499,-4.3539,-4.3523,-4.3593,-4.3602,-4.3598,-4.3592,-4.3601,-4.3601,-4.3613,-4.3603,-4.3579,-4.3578,-4.3577,-4.3576,0,-4.3416,-4.3403,-4.348,-4.3486,-4.3489,-4.3545,-4.355,-4.3592,-4.3584,-4.3641,-4.3653,-4.3641,-4.3686,-4.3668,-4.3715,-4.3704,-4.3795,-4.3778,-4.379,-4.3785,-4.3852,-4.3846,-4.4072,-4.41,-4.3894,-4.3896,-4.3897,0,-4.3515,-4.3566,-4.3579,-4.3607,-4.3617,-4.3661,-4.3685,-4.3661,-4.3688,-4.3711,-4.3751,-4.3792,-4.3824,-4.3898,-4.3893,-4.3929,-4.3913,-4.399,-4.3917,-4.3925,-4.3913,-4.391,-4.3915,-4.4004,-4.4006,-4.4008,-4.401,0,-4.3692,-4.3683,-4.3721,-4.3757,-4.3787,-4.3814,-4.3837,-4.3862,-4.3838,-4.3871,-4.3917,-4.3942,-4.3991,-4.4033,-4.4066,-4.4071,-4.4037,-4.4033,-4.405,-4.4058,-4.4063,-4.4061,-4.3828,-4.4027,-4.4025,-4.4024,-4.4023,-4.4022,-4.3822,-4.3866,-4.3883,-4.3926,-4.3941,-4.3964,-4.4004,-4.4003,-4.4041,-4.408,-4.4063,-4.4117,-4.4132,-4.4173,-4.4184,-4.4225,-4.4195,-4.422,-4.4226,-4.4232,-4.4241,-4.4058,-4.4231,-4.4231,-4.423,-4.423,-4.4229,0,-4.3997,-4.4005,-4.4046,-4.408,-4.4114,-4.4081,-4.4105,-4.4135,-4.4183,-4.4202,-4.4235,-4.4288,-4.4329,-4.4329,-4.4366,-4.4399,-4.4385,-4.441,-4.4407,-4.4409,-4.4266,-4.4247,-4.4422,-4.4422,-4.4422,-4.4422,-4.4422,-4.4422,-4.4091,-4.4164,-4.4158,-4.4238,-4.4246,-4.4299,-4.4315,-4.4336,-4.4351,-4.4413,-4.4447,-4.4447,-4.4458,-4.4497,-4.4533,-4.4532,-4.4547,-4.4579,-4.4572,-4.4438,-4.4419,-4.4401,-4.4383,-4.4583,-4.4583,-4.4711,-4.4712,-4.4713]},{"header":{"parameterUnit":"m.s-1","parameterCategory":1,"la1":30.2991,"la2":30.254,"lo1":-89.0895,"lo2":-89.0444,"dy":0.0017,"dx":0.0017,"nx":28,"ny":28,"refTime":"2025-12-22T03:00:00:Z","depth":0,"parameterNumber":3,"parameterNumberName":"V-component_of_WINDS"},"data":[0,0,0,0,0,0,0,0,0,0,0,0,0,0,0,0,0,0,0,0,0,0,0,0,0,0,0,0,0,0,0,0,0,0,0,0,0,0,0,0,0,0,0,0,0,0,0,0,0,0,0,0,0,0,0,0,0,0,1.5404,1.5406,0,1.556,1.5562,1.5564,1.5625,1.5625,1.5625,1.5624,1.5781,1.5785,1.579,0,0,0,0,0,0,0,0,0,0,0,0,0,1.5159,1.5163,1.5404,1.5406,1.5408,1.556,1.5562,1.5564,1.5625,1.5625,1.5625,1.5624,1.5779,1.5785,1.579,0,0,0,0,0,0,0,0,0,0,0,0,0,1.5285,1.5165,1.5404,1.5457,1.5463,1.5559,1.5562,1.5565,1.5626,1.5625,1.5624,1.5624,1.5778,1.5784,1.5791,1.5844,0,0,1.5812,1.5815,0,0,0,0,0,0,0,0,1.5278,1.5294,1.5447,1.5454,1.5461,1.5573,1.5533,1.5658,1.5626,1.5564,1.5624,1.5624,1.5712,1.5724,1.5754,1.5852,1.5858,1.5812,1.5816,1.5819,1.5821,0,0,0,0,0,0,0,1.5269,1.5288,1.5466,1.5449,1.5458,1.5473,1.549,1.5557,1.5639,1.5569,1.5574,1.5592,1.5715,1.5748,1.5759,1.5861,1.5812,1.5818,1.5822,1.5825,1.6012,1.6013,0,0,0,0,0,0,1.5252,1.528,1.5461,1.547,1.5366,1.5478,1.5497,1.5537,1.5639,1.5654,1.5592,1.5594,1.5736,1.5751,1.5764,1.5836,1.5819,1.5826,1.583,1.6012,1.6013,1.6014,0,0,0,0,0,0,1.5246,1.5267,1.5455,1.5377,1.5402,1.5483,1.5527,1.5541,1.5573,1.5656,1.5671,1.561,1.5737,1.5755,1.5825,1.5842,1.5829,1.5835,1.601,1.6012,1.6013,1.5978,0,0,0,0,0,0,1.5239,1.5265,1.5286,1.5377,1.5406,1.5513,1.5528,1.5544,1.5585,1.5589,1.5677,1.5691,1.5737,1.5814,1.5832,1.5851,1.584,1.6009,1.6011,1.6013,1.5978,1.5978,1.5978,0,0,0,0,0,1.523,1.5269,1.5287,1.5309,1.5434,1.5514,1.553,1.5584,1.5586,1.5609,1.5662,1.5688,1.5837,1.5821,1.5841,1.5863,1.6009,1.6011,1.6013,1.5978,1.5978,1.5978,0,0,0,0,0,0,1.5177,1.5282,1.5303,1.5372,1.5434,1.5524,1.5554,1.5582,1.5643,1.5644,1.5707,1.5727,1.5792,1.5834,1.5814,1.5921,1.5925,1.5931,1.5891,1.5892,1.5892,1.5881,1.5846,0,0,0,0,0,1.5173,1.523,1.5318,1.5371,1.5401,1.5472,1.5508,1.5545,1.561,1.5636,1.5695,1.5757,1.5819,1.5857,1.5918,1.5984,1.6005,1.6009,1.6008,1.6008,1.6013,1.6053,1.6056,1.602,1.602,1.602,0,0,1.5166,1.5231,1.5262,1.5362,1.5414,1.5471,1.5493,1.5552,1.5595,1.5645,1.5716,1.5761,1.5835,1.5903,1.5937,1.5941,1.6028,1.6011,1.601,1.6015,1.6055,1.6059,1.6062,1.6022,1.6021,1.6021,0,0,1.5183,1.5237,1.5288,1.534,1.5419,1.5467,1.5479,1.5565,1.5598,1.567,1.571,1.5761,1.5865,1.5917,1.5956,1.5995,1.6022,1.6013,1.6013,1.6051,1.6054,1.6057,1.6072,1.6077,1.6017,1.6017,1.6017,0,1.5164,1.5253,1.531,1.5368,1.5412,1.5461,1.5514,1.5561,1.5655,1.5684,1.5687,1.582,1.5873,1.5955,1.5965,1.5995,1.6012,1.6003,1.6049,1.6052,1.6056,1.6072,1.6077,1.6015,1.6016,1.6016,1.6016,0,1.5227,1.5287,1.5319,1.5411,1.5458,1.5512,1.5578,1.5618,1.5651,1.5698,1.5772,1.5837,1.5913,1.5935,1.5966,1.6023,1.6023,1.6037,1.6042,1.6057,1.6073,1.6079,1.6013,1.6014,1.6014,1.6015,0,0,1.5214,1.5338,1.5349,1.5393,1.5484,1.5532,1.5589,1.5665,1.5699,1.5763,1.5813,1.5901,1.5915,1.596,1.5998,1.6031,1.606,1.6041,1.6044,1.6044,1.6129,1.6119,1.6125,1.6078,1.6079,1.608,1.6123,0,1.5244,1.535,1.5405,1.5487,1.5545,1.5594,1.5644,1.5706,1.5751,1.5807,1.5857,1.5919,1.5932,1.596,1.5995,1.6049,1.6078,1.6046,1.6126,1.6128,1.6108,1.6133,1.6122,1.6159,1.6129,1.613,1.6131,0,1.5293,1.5359,1.5448,1.5535,1.5562,1.5606,1.5681,1.5733,1.5804,1.5835,1.5887,1.5925,1.5987,1.5987,1.6075,1.6052,1.6088,1.612,1.6122,1.6133,1.6131,1.6146,1.6172,1.6178,1.6141,1.614,1.614,0,1.5277,1.5387,1.5456,1.5491,1.5594,1.5624,1.5668,1.5739,1.5782,1.5847,1.5876,1.5947,1.5986,1.604,1.6096,1.609,1.6179,1.6183,1.6207,1.6206,1.6224,1.6223,1.6259,1.6244,1.6244,1.6244,1.6244,0,1.5306,1.5359,1.545,1.5492,1.5553,1.5615,1.5674,1.5722,1.5785,1.5838,1.5883,1.5931,1.6001,1.6058,1.6102,1.6169,1.6186,1.6213,1.6224,1.621,1.6207,1.6235,1.6235,1.6246,1.6245,1.6245,1.6245,0,1.5299,1.5361,1.544,1.5532,1.5556,1.5597,1.5676,1.5719,1.5768,1.5834,1.5853,1.5929,1.5998,1.6059,1.615,1.618,1.625,1.6262,1.6226,1.6233,1.6254,1.6252,1.6311,1.6323,1.6298,1.6298,1.6299,0,1.5313,1.5356,1.5453,1.5493,1.5537,1.5599,1.5644,1.5706,1.5751,1.5837,1.587,1.5943,1.6005,1.6114,1.6177,1.6248,1.6264,1.628,1.6275,1.626,1.6266,1.6264,1.6269,1.628,1.628,1.628,1.628,0,1.5334,1.5364,1.5427,1.5502,1.5555,1.5616,1.5679,1.5708,1.5783,1.5831,1.5904,1.5952,1.6047,1.612,1.6198,1.6243,1.6274,1.6281,1.6291,1.6277,1.6255,1.6269,1.6228,1.6279,1.6279,1.6279,1.6279,1.6279,1.5339,1.538,1.5456,1.5526,1.5581,1.5639,1.5685,1.574,1.5802,1.5886,1.5919,1.5993,1.6066,1.6174,1.6219,1.6279,1.6284,1.6297,1.6301,1.6304,1.6302,1.6244,1.6293,1.6293,1.6293,1.6293,1.6293,0,1.5364,1.5416,1.5479,1.5567,1.5622,1.5648,1.572,1.5764,1.583,1.5895,1.5956,1.6041,1.6112,1.6182,1.6257,1.6291,1.6307,1.6308,1.6307,1.6318,1.6292,1.6277,1.6294,1.6294,1.6294,1.6294,1.6294,1.6294,1.5383,1.5455,1.5494,1.5593,1.5645,1.5719,1.5758,1.5813,1.5866,1.5959,1.6019,1.6065,1.6132,1.6213,1.628,1.6298,1.6324,1.6322,1.6345,1.632,1.6319,1.6318,1.6305,1.6327,1.6327,1.6366,1.6366,1.6366]}]]